Date String (YYYY-MM-DD hh:mm:ss) UTC,Instrument flags,absolute air pressure of the measurement (hPa),sample flow rate (lpm),inlet stack bypass flow (lpm),air temperature of the measurement (°C),ambient temperature measured by the external sensor (°C),aerosol sample conditioner tube jacket temperature (°C),OPC LED temperature (°C),internal box temperature (°C),relative humidity of the measurement (%),span deviation,mass concentration of particles derived from Lorenz-Mie calculation of OPC scattering (μg/m³),mass concentration of particles derived from Lorenz-Mie calculation of OPC scattering (μg/m³),mass concentration of particles derived from Lorenz-Mie calculation of OPC scattering (μg/m³)
DateTimeUTC,F1_M11,P_M11,Q1_M11,Q2_M11,T1_M11,T2_M11,T3_M11,T4_M11,T5_M11,U1_M11,ZSPAN_M11,X0_M11,X2_M11,X1_M11
2023-07-09 04:00:00,SystemResetWarning,0834.5,5.01,000.00,029.8,027.7,000.0,038.4,031.2,34.2,-000.7,0016.96,0007.17,0005.71
2023-07-09 04:01:00,SystemResetWarning,0834.5,5.00,000.00,029.8,027.9,000.0,038.4,031.2,34.2,-000.8,0016.80,0007.15,0005.75
2023-07-09 04:02:00,SystemResetWarning,0834.2,5.00,000.00,029.8,028.0,000.0,038.4,031.3,34.2,-000.5,0016.43,0007.21,0005.81
2023-07-09 04:03:00,SystemResetWarning,0834.3,4.99,000.00,029.8,028.2,000.0,038.4,031.3,34.2,-000.3,0016.38,0007.33,0005.89
2023-07-09 04:04:00,SystemResetWarning,0834.4,4.99,000.00,029.8,028.3,000.0,038.4,031.3,34.2,-000.0,0016.61,0007.37,0005.97
2023-07-09 04:05:00,SystemResetWarning,0834.3,5.00,000.00,029.9,028.4,000.0,038.4,031.3,34.1,-000.4,0017.05,0007.39,0006.05
2023-07-09 04:06:00,SystemResetWarning,0834.3,5.02,000.00,029.9,028.5,000.0,038.4,031.4,34.1,-000.5,0016.69,0007.44,0006.13
2023-07-09 04:07:00,SystemResetWarning,0834.3,4.99,000.00,029.9,028.5,000.0,038.4,031.4,34.1,-000.3,0017.12,0007.49,0006.20
2023-07-09 04:08:00,SystemResetWarning,0834.3,4.99,000.00,029.9,028.6,000.0,038.4,031.4,34.1,-000.4,0017.29,0007.50,0006.24
2023-07-09 04:09:00,SystemResetWarning,0834.4,5.01,000.00,029.9,028.6,000.0,038.4,031.4,34.1,-000.1,0017.51,0007.49,0006.31
2023-07-09 04:10:00,SystemResetWarning,0834.4,5.01,000.00,030.0,028.7,000.0,038.5,031.5,34.1,-000.1,0017.21,0007.57,0006.41
2023-07-09 04:11:00,SystemResetWarning,0834.4,5.00,000.00,030.0,028.7,000.0,038.5,031.5,34.0,-000.6,0016.90,0007.64,0006.49
2023-07-09 04:12:00,SystemResetWarning,0834.4,5.00,000.00,030.0,028.7,000.0,038.5,031.5,34.0,-001.1,0016.46,0007.72,0006.57
2023-07-09 04:13:00,SystemResetWarning,0834.3,5.00,000.00,030.0,028.8,000.0,038.5,031.6,34.0,-001.7,0016.44,0007.80,0006.64
2023-07-09 04:14:00,SystemResetWarning,0834.3,4.99,000.00,030.0,027.9,000.0,038.4,031.5,34.0,-002.4,0016.31,0007.84,0006.68
2023-07-09 04:15:00,SystemResetWarning,0834.7,5.00,000.00,030.0,026.0,000.0,038.3,031.3,34.2,-002.5,0016.13,0007.85,0006.70
2023-07-09 04:16:00,SystemResetWarning,0834.2,5.01,000.00,029.9,025.3,000.0,038.2,031.0,34.3,-002.3,0015.88,0007.91,0006.71
2023-07-09 04:17:00,SystemResetWarning,0834.3,5.00,000.00,029.7,025.4,000.0,038.2,030.7,34.6,-002.3,0015.87,0007.98,0006.73
2023-07-09 04:18:00,SystemResetWarning,0834.3,5.00,000.00,029.6,025.8,000.0,038.2,030.7,34.7,-002.7,0015.57,0008.02,0006.75
2023-07-09 04:19:00,SystemResetWarning,0834.4,5.00,000.00,029.6,026.3,000.0,038.2,030.8,34.9,-002.5,0015.56,0008.04,0006.76
2023-07-09 04:20:00,SystemResetWarning,0834.3,5.00,000.00,029.6,026.7,000.0,038.2,030.9,34.9,-002.3,0015.20,0008.06,0006.76
2023-07-09 04:21:00,SystemResetWarning,0834.2,5.00,000.00,029.6,027.0,000.0,038.2,030.9,34.9,-002.6,0014.96,0008.01,0006.73
2023-07-09 04:22:00,SystemResetWarning,0834.4,4.98,000.00,029.6,027.3,000.0,038.2,031.0,34.8,-002.2,0015.31,0008.02,0006.74
2023-07-09 04:23:00,SystemResetWarning,0834.6,5.00,000.00,029.6,027.5,000.0,038.2,031.1,34.8,-001.8,0015.18,0008.01,0006.75
2023-07-09 04:24:00,SystemResetWarning,0834.4,5.00,000.00,029.6,027.7,000.0,038.2,031.1,34.8,-001.3,0014.95,0007.97,0006.75
2023-07-09 04:25:00,SystemResetWarning,0834.5,5.00,000.00,029.6,027.9,000.0,038.2,031.1,34.8,-000.9,0015.40,0008.00,0006.79
2023-07-09 04:26:00,SystemResetWarning,0834.4,5.01,000.00,029.6,028.0,000.0,038.2,031.2,34.7,-001.1,0015.55,0008.13,0006.83
2023-07-09 04:27:00,SystemResetWarning,0834.3,5.00,000.00,029.7,028.2,000.0,038.2,031.2,34.7,-001.4,0016.77,0008.18,0006.86
2023-07-09 04:28:00,SystemResetWarning,0834.2,5.00,000.00,029.7,028.3,000.0,038.2,031.2,34.7,-001.3,0017.22,0008.28,0006.92
2023-07-09 04:29:00,SystemResetWarning,0834.2,4.99,000.00,029.7,028.4,000.0,038.2,031.3,34.6,-000.9,0017.36,0008.36,0006.94
2023-07-09 04:30:00,SystemResetWarning,0834.2,4.99,000.00,029.7,028.4,000.0,038.2,031.3,34.5,-001.0,0017.62,0008.41,0006.98
2023-07-09 04:31:00,SystemResetWarning,0834.2,5.00,000.00,029.8,028.5,000.0,038.3,031.3,34.5,-001.1,0018.34,0008.45,0007.03
2023-07-09 04:32:00,SystemResetWarning,0834.2,5.02,000.00,029.8,028.5,000.0,038.3,031.3,34.5,-001.6,0018.78,0008.55,0007.08
2023-07-09 04:33:00,SystemResetWarning,0834.2,4.99,000.00,029.8,028.6,000.0,038.3,031.4,34.5,-001.7,0019.17,0008.64,0007.11
2023-07-09 04:34:00,SystemResetWarning,0834.2,4.99,000.00,029.8,028.6,000.0,038.3,031.4,34.4,-002.1,0019.53,0008.68,0007.13
2023-07-09 04:35:00,SystemResetWarning,0834.2,5.02,000.00,029.9,028.7,000.0,038.3,031.4,34.3,-002.3,0019.66,0008.77,0007.18
2023-07-09 04:36:00,SystemResetWarning,0834.2,5.00,000.00,029.9,028.7,000.0,038.4,031.5,34.2,-002.7,0019.31,0008.82,0007.21
2023-07-09 04:37:00,SystemResetWarning,0834.2,4.98,000.00,029.9,027.7,000.0,038.3,031.4,34.2,-002.8,0019.02,0008.79,0007.23
2023-07-09 04:38:00,SystemResetWarning,0834.3,5.00,000.00,029.8,025.9,000.0,038.1,031.2,34.3,-002.9,0017.22,0008.74,0007.25
2023-07-09 04:39:00,SystemResetWarning,0834.3,5.01,000.00,029.8,025.3,000.0,038.1,031.0,34.4,-003.1,0017.10,0008.75,0007.28
2023-07-09 04:40:00,SystemResetWarning,0834.2,5.01,000.00,029.6,025.5,000.0,038.1,030.7,34.7,-003.2,0017.52,0008.77,0007.31
2023-07-09 04:41:00,SystemResetWarning,0834.2,4.99,000.00,029.5,025.9,000.0,038.1,030.7,34.9,-003.5,0017.16,0008.83,0007.36
2023-07-09 04:42:00,SystemResetWarning,0834.3,4.98,000.00,029.5,026.3,000.0,038.1,030.8,35.0,-003.7,0017.55,0008.89,0007.41
2023-07-09 04:43:00,SystemResetWarning,0834.1,5.02,000.00,029.5,026.7,000.0,038.1,030.9,35.1,-003.6,0018.11,0008.91,0007.45
2023-07-09 04:44:00,SystemResetWarning,0834.2,4.99,000.00,029.7,027.0,000.0,038.1,031.0,34.7,-003.6,0018.38,0008.88,0007.47
2023-07-09 04:45:00,SystemResetWarning,0834.2,5.01,000.00,029.9,027.3,000.0,038.1,031.1,34.2,-003.1,0018.08,0008.94,0007.51
2023-07-09 04:46:00,SystemResetWarning,0834.2,4.99,000.00,030.0,027.5,000.0,038.2,031.1,34.0,-002.6,0018.58,0009.00,0007.55
2023-07-09 04:47:00,SystemResetWarning,0834.2,5.00,000.00,030.0,027.7,000.0,038.2,031.2,33.9,-002.3,0019.58,0009.07,0007.57
2023-07-09 04:48:00,SystemResetWarning,0834.2,5.01,000.00,030.1,027.9,000.0,038.2,031.2,33.8,-002.5,0019.73,0009.09,0007.58
2023-07-09 04:49:00,SystemResetWarning,0834.2,5.00,000.00,030.1,028.0,000.0,038.3,031.2,33.7,-002.6,0020.50,0009.12,0007.56
2023-07-09 04:50:00,SystemResetWarning,0834.1,4.99,000.00,030.1,028.2,000.0,038.3,031.3,33.7,-002.2,0020.47,0009.01,0007.49
2023-07-09 04:51:00,SystemResetWarning,0834.2,4.99,000.00,030.2,028.3,000.0,038.4,031.3,33.6,-002.0,0019.60,0008.87,0007.43
2023-07-09 04:52:00,SystemResetWarning,0834.2,5.00,000.00,030.2,028.3,000.0,038.4,031.3,33.6,-001.4,0019.59,0008.75,0007.33
2023-07-09 04:53:00,SystemResetWarning,0834.2,5.00,000.00,030.2,028.4,000.0,038.5,031.4,33.6,-001.1,0019.15,0008.69,0007.25
2023-07-09 04:54:00,SystemResetWarning,0834.2,5.01,000.00,030.2,028.5,000.0,038.5,031.4,33.6,-000.8,0018.39,0008.67,0007.18
2023-07-09 04:55:00,SystemResetWarning,0834.2,5.00,000.00,030.3,028.5,000.0,038.5,031.4,33.5,-000.7,0017.86,0008.61,0007.13
2023-07-09 04:56:00,SystemResetWarning,0834.2,5.00,000.00,030.3,028.6,000.0,038.5,031.4,33.4,-001.1,0018.32,0008.52,0007.06
2023-07-09 04:57:00,SystemResetWarning,0834.2,5.00,000.00,030.3,028.6,000.0,038.6,031.5,33.4,-001.4,0018.08,0008.39,0006.96
2023-07-09 04:58:00,SystemResetWarning,0834.4,5.00,000.00,030.3,028.7,000.0,038.6,031.5,33.3,-002.0,0017.28,0008.25,0006.87
2023-07-09 04:59:00,SystemResetWarning,0834.3,5.00,000.00,030.3,028.7,000.0,038.6,031.5,33.2,-001.6,0017.43,0008.15,0006.79
